COSMOS 2251 DEB, 47048

Orbit data source: Space-Track

COSMOS 2251 DEB, 47048 is space debris in LEO originally from a launch on Wed, 16 Jun 1993 UTC launched from the Plesetsk Missile And Space Complex (PKMTR). The debris from Iridium 33, an American commercial communications satellite, has been tracked extensively since its accidental collision with the defunct Russian satellite Cosmos 2251 in 2009. This event, occurring at high speed in low Earth orbit (LEO), generated thousands of pieces of space debris, significantly increasing the risk of further collisions. The Iridium 33 debris cloud has impacted space traffic management and orbital debris mitigation strategies, making it a subject of ongoing study in space situational awareness.

Loading next visibility...
Identifier
47048, 1993-036BXC
Orbit
LEO
Country
Flag of CISCIS
Related business
Manufacturer
Unknown
Mission
Spacecraft
Bus & Motor
Unknown
Mass
Unknown
Launch date (UTC)
1993-06-16 (33 years ago)
Launch vehicle
Unknown
Launch site
Plesetsk Missile And Space Complex (PKMTR)
Object type
Payload
Rocket body
Debris
Shape & HBR
Unknown shape, 0.1 m
Radar Cross Section
Small (<0.1 m²)

Expand to show TLE details & history
Last TLE update: 2 weeks ago

TLE from 2 weeks ago
0 COSMOS 2251 DEB
1 47048U 93036BXC 26224.26212370  .00002364  00000-0  49905-3 0  9998
2 47048  73.9753 219.2973 0130870 347.6695  24.6766 14.54725657632144
Epoch: 2026-08-12T06:17Z
TLE epoch observation values (Epoch: 2026-08-12T06:17:27.487Z)
Latitude
12.43492°
Longitude
167.82544°
Altitude
628.034 km
Speed
7.59 km/s
True Right ascension
14h 51m 38s
True Declination
12° 21' 41"
Sunlit
Object was in daylight at epoch
Visualization orbit readout
Latitude
Unknown
Longitude
Unknown
Altitude
Unknown
Speed
Unknown
Apparent Right ascension
Unknown
Apparent Declination
Unknown
Sunlit
N/A
Visualization observer readout
Local Sidereal Time
10:21:47
Azimuth
Unknown
Elevation
Unknown
Doppler factor
Unknown
Orbital elements
Apogee altitude
800.598 km
Perigee altitude
615.129 km
Semi-major axis
7,086.001 km
Eccentricity
0.01309
Inclination
73.9753°
RAAN
219.2973°
Arg. of periapsis
347.6695°
True anomaly
25.31213°
Mean anomaly
24.6766°
Eccentric anomaly
24.99341°
Mean motion
3.63866 °/min
Orbital period
98.94 mins
BSTAR
0.00049905
Loading maneuver chart data...
Computing Atmospheric mass density...

Documentation

Showing up to 5 results
|